Flag for U.S.A. Weather past 2 weeks in Key West, Florida, U.S.A.

Now
92 °F

Passing clouds.


Feels Like: 109 °F
Forecast: 82 / 90 °F
Wind: 13 mph from Southeast

Location: Key West International Airport

Current Time: Jun 30, 2015 at 4:46:09 PM

Latest Report: Jun 30, 2015 at 3:53 PM


Visibility: 10 mi

Pressure: 30.08 "Hg

Humidity: 66%

Dew point: 79 °F

Location of Key WestLocation

Historic Weather in Key West — Graph

°F

Key West temperature yesterday

Maximum temperature yesterday: 92 °F (at 4:53 PM)
Minimum temperature yesterday: 81 °F (at 6:53 AM)
Average temperature yesterday: 86 °F

Past Weeks' High & Low Weather Summary

 TemperatureHumidityPressure
High94 °F (Jun 30, 2:53 PM)88% (Jun 29, 6:53 AM)30.16 "Hg (Jun 29, 6:53 AM)
Low80 °F (Jun 21, 6:53 AM)58% (Jun 30, 1:53 PM)30.02 "Hg (Jun 26, 4:53 AM)
Average85 °F75%30.08 "Hg
* Reported Jun 15 3:53 PM — Jun 30 3:53 PM, Key West, Weather by CustomWeather, © 2015

Note: Actual official high and low records may vary slightly from our data, if they occured in-between our weather recording intervals... More about our weather records

Advertising

Key West weather history for previous 24 hours

 ConditionsComfort  
Time TempWeatherWind HumidityBarometerVisibility
3:53 PM
Tue, Jun 30
92 °FPassing clouds.13 mph66%30.08 "Hg10 mi
2:53 PM94 °FSunny.7 mph58%30.10 "Hg10 mi
1:53 PM93 °FSunny.7 mph58%30.12 "Hg10 mi
12:53 PM91 °FSunny.8 mph64%30.13 "Hg10 mi
11:53 AM91 °FSunny.9 mph66%30.14 "Hg10 mi
10:53 AM90 °FSunny.7 mph68%30.14 "Hg10 mi
9:53 AM89 °FSunny.7 mph70%30.14 "Hg10 mi
8:53 AM87 °FSunny.3 mph75%30.12 "Hg10 mi
7:53 AM84 °FSunny.No wind83%30.10 "Hg10 mi
6:53 AM84 °FClear.3 mph80%30.10 "Hg10 mi
5:53 AM84 °FClear.6 mph83%30.09 "Hg10 mi
4:53 AM84 °FPassing clouds.5 mph83%30.08 "Hg10 mi
3:53 AM84 °FPartly cloudy.10 mph85%30.08 "Hg10 mi
2:53 AM85 °FClear.8 mph72%30.09 "Hg10 mi
1:53 AM85 °FClear.12 mph80%30.10 "Hg10 mi
12:53 AM85 °FPassing clouds.10 mph80%30.12 "Hg10 mi
11:53 PM
Mon, Jun 29
85 °FClear.6 mph72%30.13 "Hg10 mi
10:53 PM85 °FClear.5 mph72%30.12 "Hg10 mi
9:53 PM85 °FClear.6 mph72%30.11 "Hg10 mi
8:53 PM85 °FSunny.3 mph70%30.09 "Hg10 mi
7:53 PM87 °FSunny.8 mph69%30.09 "Hg10 mi
6:53 PM89 °FSunny.10 mph68%30.08 "Hg10 mi
5:53 PM91 °FSunny.10 mph68%30.07 "Hg10 mi
4:53 PM92 °FPassing clouds.8 mph66%30.07 "Hg10 mi
Weather by CustomWeather, © 2015

See weather overviewHow to use our weather pages